Tracking 19199 objects as of 25-Jun-2018
HD Live streaming from Space Station
objects crossing your sky now

FENGYUN 1C DEB

Track FENGYUN 1C DEB now!
10-day predictions


NORAD ID: 33655
Int'l Code: 1999-025DEQ
Perigee: 646.3 km
Apogee: 803.0 km
Inclination: 98.9 °
Period: 99.1 minutes
Semi major axis: 7095 km
RCS: 0.0112 m2 (small)
Launch date: May 10, 1999
Source: People's Republic of China (PRC)
Launch site: Taiyaun Space Center, China (TSC)

Note: This is SATELLITE DEBRIS
aabbcc
Your satellite tracking list
Your tracking list is empty




NASA's NSSDC Master Catalog

Two Line Element Set (TLE):
1 33655U 99025DEQ 18174.38203789 +.00000505 +00000-0 +12670-3 0  9997
2 33655 098.8585 023.3154 0110467 109.2376 252.0808 14.52492156566845
Source of the keplerian elements: AFSPC